GEOEYE 1

Last updated on Wed Sep 17 2025 00:02:30 GMT+0000 (Coordinated Universal Time)

1 33331U 08042A 25259.49156767 .00000470 00000+0 97119-4 0 9996 2 33331 98.1246 331.8574 0004079 180.3632 179.7569 14.64774553910087
UTC large
Height (km)
Speed (km/s)
/
Latitude / Longitude
Inclination (degrees)
Orbital Period (minutes)
Azimuth
Elevation
Range (km)
Doppler Factor

Next 0 passes for location: London (51.5072 / 0.1276)

Sorry there are no passes over London.